Terminal Aerodrome Forecast
Issued by NWS

Home | Current Version | Previous Version | Text Only | Print | Product List | Glossary On
Versions: 1 2 3 4 5 6 7 8 9 10 11 12 13 14 15 16 17 18 19 20 21 22 23 24 25 26 27 28 29 30 31 32 33 34 35 36 37 38 39 40 41 42 43 44 45 46 47 48 49 50
551
FTUS41 KCTP 160529
TAFBFD
TAF
KBFD 160529Z 1606/1706 24010G20KT 6SM -SHSN BR OVC004
      TEMPO 1610/1614 1 1/2SM -SHSN OVC002
     FM161400 28015G25KT 2SM -SHSN OVC012
     FM162300 29010G20KT P6SM -SHSN OVC025=

USA.gov is the U.S. government's official web portal to all federal, state and local government web resources and services.